Content
SEND FEEDBACK

Daily
Averages
Monthly
Summary
United States of America

LAKE GEORGE, NEW YORK


Home > North America > United States > New York
Elevation: 321 feet     Latitude: 43 21N     Longitude: 073 37W

WEATHER
 
SELECT A DAY
Number of Records: 213,124;   Date Range: 1/1/95 - 8/12/14
 
SHARE

PRINT THIS DATA

[ ← Previous Day ]
WEATHER ALMANAC - MAY 7, 2013
[ Next Day → ]
[ °C ]   °F
Weather ElementAverageHighLow
Temperature63.8 °F80.1 °F (4:53 pm)42.1 °F (4:53 am)
Dewpoint45.8 °F52 °F (9:53 am)37.9 °F (5:53 am)
Humidity57.4 %89 % (4:53 am)25 % (1:53 pm)
Barometer30.10 in30.17 in (7:53 am)30.02 in (5:53 pm)
Wind Speed2.6 mph6.9 mph (3:53 pm)
Weather ElementAverage
Visibility9.9 mi
Wind DirectionE (84.8 °)

Weather ElementTotal
Precipitation---
Heating Degree Days3.9 (Base 65)
Growing Degree Days11.1 (Base 50)
Averaged from 23 records on May 7, 2013
WEATHER CONDITIONS BREAKOUT
WIND DIRECTION BREAKOUT
WEATHER BY HOUR - MAY 7, 2013
[ °C ]   °F
Local TimeTemperatureDewpointHumidityBarometerVisibilityWind DirectionWind SpeedGust SpeedPrecipitationEventsConditions
1:53 AM46.9 °F41.0 °F80 %30.14 in10.0 miCalmClear
2:53 AM45.0 °F39.9 °F82 %30.14 in10.0 miCalmClear
3:53 AM44.1 °F39.0 °F82 %30.14 in10.0 miCalmClear
4:53 AM42.1 °F39.0 °F89 %30.14 in10.0 miCalmClear
5:53 AM42.1 °F37.9 °F85 %30.15 in9.0 miCalmClear
6:53 AM48.0 °F44.1 °F86 %30.16 in10.0 miCalmClear
7:53 AM57.0 °F51.1 °F81 %30.17 in9.0 miSouth (170°)5.8 mphClear
8:53 AM60.1 °F51.1 °F72 %30.16 in10.0 miESE (110°)5.8 mphClear
9:53 AM64.0 °F52.0 °F65 %30.16 in10.0 miSE (130°)3.5 mphClear
10:53 AM68.0 °F52.0 °F56 %30.15 in10.0 miESE (120°)3.5 mphClear
11:53 AM72.0 °F50.0 °F46 %30.13 in10.0 miCalmClear
12:53 PM75.0 °F50.0 °F41 %30.11 in10.0 miNE (40°)3.5 mphClear
1:53 PM78.1 °F39.9 °F25 %30.08 in10.0 miCalmClear
2:53 PM79.0 °F39.9 °F25 %30.06 in10.0 miSouth (190°)4.6 mphClear
3:53 PM79.0 °F44.1 °F29 %30.04 in10.0 miSouth (180°)6.9 mphClear
4:53 PM80.1 °F43.0 °F27 %30.03 in10.0 miCalmClear
5:53 PM79.0 °F46.9 °F32 %30.02 in10.0 miSW (220°)5.8 mphClear
6:53 PM78.1 °F45.0 °F31 %30.03 in10.0 miSouth (180°)4.6 mphMostly Cloudy
7:53 PM73.9 °F46.0 °F37 %30.04 in10.0 miCalmClear
8:53 PM64.0 °F51.1 °F63 %30.06 in10.0 miSSW (210°)3.5 mphClear
9:53 PM61.0 °F52.0 °F72 %30.08 in10.0 miCalmClear
10:53 PM66.0 °F48.9 °F54 %30.09 in10.0 miSouth (190°)6.9 mphClear
11:53 PM64.0 °F50.0 °F60 %30.11 in10.0 miSSW (210°)4.6 mphClear
Hourly data recorded from KGFL, located miles away from Lake George, New York







STORIES FROM OUR PARTNERS